| time (UTC) | temp F | wind direction | speed knots | gust knots | rain 1hr in | rain 24hr in | rain mn in | humidity % | barometer mb |
| 20260505170002 | 68 | 163 | 4.3 | 13.9 | 0.00 | 0.00 | 0.00 | 61 | 1011.3 |
| 20260505164940 | 68 | 171 | 5.2 | 12.2 | 0.00 | 0.00 | 0.00 | 61 | 1011.3 |
| 20260505163942 | 68 | 171 | 4.3 | 10.4 | 0.00 | 0.00 | 0.00 | 61 | 1011.2 |
| 20260505162944 | 67 | 175 | 5.2 | 11.3 | 0.00 | 0.00 | 0.00 | 61 | 1011.1 |
| 20260505161927 | 67 | 175 | 6.1 | 12.2 | 0.00 | 0.00 | 0.00 | 60 | 1011.1 |
| 20260505160933 | 67 | 184 | 2.6 | 10.4 | 0.00 | 0.00 | 0.00 | 65 | 1011.1 |
| 20260505152929 | 65 | 207 | 5.2 | 9.6 | 0.00 | 0.00 | 0.00 | 63 | 1011.0 |
| 20260505151936 | 63 | 217 | 4.3 | 8.7 | 0.00 | 0.00 | 0.00 | 67 | 1010.9 |
| 20260505150940 | 62 | 222 | 1.7 | 5.2 | 0.00 | 0.00 | 0.00 | 67 | 1010.9 |
| 20260505124937 | 55 | 222 | 0.0 | 3.5 | 0.00 | 0.00 | 0.00 | 70 | 1009.6 |
| 20260505123939 | 55 | 222 | 0.0 | 0.0 | 0.00 | 0.00 | 0.00 | 72 | 1009.6 |
| 20260505122943 | 55 | 222 | 0.0 | 0.0 | 0.00 | 0.00 | 0.00 | 71 | 1009.6 |
| 20260505121931 | 55 | 222 | 0.0 | 0.0 | 0.00 | 0.00 | 0.00 | 70 | 1009.5 |
| 20260505120934 | 55 | 222 | 0.0 | 0.0 | 0.00 | 0.00 | 0.00 | 69 | 1009.4 |
| 20260505115936 | 56 | 222 | 0.0 | 0.0 | 0.00 | 0.00 | 0.00 | 69 | 1009.3 |
| 20260505114939 | 56 | 222 | 0.0 | 0.0 | 0.00 | 0.00 | 0.00 | 69 | 1009.1 |
| 20260505112942 | 56 | 222 | 0.0 | 0.0 | 0.00 | 0.00 | 0.00 | 66 | 1009.0 |
| 20260505111943 | 57 | 222 | 0.0 | 0.0 | 0.00 | 0.00 | 0.00 | 67 | 1008.9 |
| 20260505110931 | 57 | 222 | 0.0 | 1.7 | 0.00 | 0.00 | 0.00 | 65 | 1008.8 |
| 20260505101942 | 58 | 222 | 0.0 | 0.0 | 0.00 | 0.00 | 0.00 | 66 | 1008.3 |
| 20260505100945 | 58 | 222 | 0.0 | 0.0 | 0.00 | 0.00 | 0.00 | 65 | 1008.3 |
| 20260505095931 | 58 | 222 | 0.0 | 3.5 | 0.00 | 0.00 | 0.00 | 63 | 1008.2 |
| 20260505094954 | 59 | 222 | 1.7 | 5.2 | 0.00 | 0.00 | 0.00 | 62 | 1008.2 |
| 20260505092932 | 60 | 222 | 0.0 | 0.0 | 0.00 | 0.00 | 0.00 | 64 | 1008.0 |
| 20260505091933 | 60 | 222 | 0.0 | 0.0 | 0.00 | 0.00 | 0.00 | 63 | 1008.1 |
| 20260505090940 | 60 | 222 | 0.0 | 0.0 | 0.00 | 0.00 | 0.00 | 61 | 1008.1 |
| 20260505085941 | 59 | 222 | 0.0 | 0.0 | 0.00 | 0.00 | 0.00 | 61 | 1008.0 |
| 20260505084927 | 59 | 222 | 0.0 | 0.0 | 0.00 | 0.00 | 0.00 | 62 | 1007.9 |
| 20260505083934 | 59 | 222 | 0.0 | 0.0 | 0.00 | 0.00 | 0.00 | 64 | 1007.9 |
| 20260505082939 | 59 | 222 | 0.0 | 0.0 | 0.00 | 0.00 | 0.00 | 64 | 1007.9 |
| 20260505081941 | 59 | 222 | 0.0 | 0.0 | 0.00 | 0.00 | 0.00 | 64 | 1007.8 |
| 20260505080942 | 60 | 222 | 0.0 | 0.0 | 0.00 | 0.00 | 0.00 | 64 | 1007.7 |
| 20260505075941 | 60 | 222 | 0.0 | 0.0 | 0.00 | 0.00 | 0.00 | 64 | 1007.6 |
| 20260505074944 | 60 | 222 | 0.0 | 0.0 | 0.00 | 0.00 | 0.00 | 63 | 1007.6 |
| 20260505073942 | 61 | 222 | 0.0 | 0.0 | 0.00 | 0.00 | 0.00 | 61 | 1007.6 |
| 20260505072944 | 61 | 222 | 0.0 | 7.8 | 0.00 | 0.00 | 0.00 | 61 | 1007.5 |
| 20260505071931 | 63 | 222 | 0.0 | 0.0 | 0.00 | 0.00 | 0.00 | 58 | 1007.1 |
| 20260505070933 | 63 | 223 | 0.0 | 0.0 | 0.00 | 0.00 | 0.00 | 58 | 1007.0 |
| 20260505065937 | 63 | 222 | 0.0 | 0.0 | 0.00 | 0.00 | 0.00 | 58 | 1006.8 |
| 20260505064943 | 63 | 223 | 0.9 | 7.0 | 0.00 | 0.00 | 0.00 | 57 | 1006.6 |
| 20260505063928 | 64 | 223 | 1.7 | 7.0 | 0.00 | 0.00 | 0.00 | 57 | 1006.7 |
| 20260505062931 | 64 | 223 | 1.7 | 7.8 | 0.00 | 0.00 | 0.00 | 57 | 1006.6 |
| 20260505061958 | 64 | 223 | 2.6 | 7.0 | 0.00 | 0.00 | 0.00 | 57 | 1006.6 |
| 20260505061002 | 64 | 222 | 3.5 | 7.8 | 0.00 | 0.00 | 0.00 | 57 | 1006.5 |
| 20260505054937 | 65 | 222 | 4.3 | 7.8 | 0.00 | 0.00 | 0.00 | 56 | 1006.5 |
| 20260505053939 | 65 | 222 | 5.2 | 8.7 | 0.00 | 0.00 | 0.00 | 57 | 1006.5 |
| 20260505052927 | 65 | 217 | 4.3 | 8.7 | 0.00 | 0.00 | 0.00 | 57 | 1006.5 |
| 20260505051928 | 65 | 217 | 4.3 | 11.3 | 0.00 | 0.00 | 0.00 | 57 | 1006.5 |
| 20260505050958 | 65 | 217 | 6.1 | 11.3 | 0.00 | 0.00 | 0.00 | 56 | 1006.5 |
| 20260505041000 | 64 | 146 | 0.0 | 0.0 | 0.00 | 0.00 | 0.00 | 60 | 1006.5 |
| 20260505034940 | 65 | 146 | 0.0 | 0.0 | 0.00 | 0.00 | 0.00 | 59 | 1006.3 |
| 20260505033942 | 67 | 146 | 0.0 | 0.0 | 0.00 | 0.00 | 0.00 | 56 | 1006.3 |
| 20260505033003 | 68 | 146 | 0.0 | 0.0 | 0.00 | 0.00 | 0.00 | 54 | 1006.2 |
| 20260505031944 | 70 | 146 | 0.0 | 0.0 | 0.00 | 0.00 | 0.00 | 52 | 1006.0 |
| 20260505025924 | 74 | 146 | 0.0 | 0.0 | 0.00 | 0.00 | 0.00 | 49 | 1005.8 |
| 20260505024930 | 75 | 146 | 0.0 | 0.0 | 0.00 | 0.00 | 0.00 | 49 | 1005.8 |
| 20260505023934 | 79 | 146 | 0.0 | 0.0 | 0.00 | 0.00 | 0.00 | 49 | 1005.7 |
| 20260505022937 | 81 | 146 | 0.0 | 0.0 | 0.00 | 0.00 | 0.00 | 46 | 1005.7 |
| 20260505021941 | 82 | 146 | 0.0 | 0.0 | 0.00 | 0.00 | 0.00 | 45 | 1005.7 |
| 20260505020927 | 82 | 146 | 0.0 | 0.0 | 0.00 | 0.00 | 0.00 | 41 | 1005.8 |
| 20260505015947 | 83 | 146 | 0.0 | 0.0 | 0.00 | 0.00 | 0.00 | 46 | 1005.8 |
| 20260505014947 | 83 | 146 | 0.0 | 0.0 | 0.00 | 0.00 | 0.00 | 41 | 1005.9 |
| 20260505013946 | 83 | 146 | 0.0 | 0.0 | 0.00 | 0.00 | 0.00 | 34 | 1006.0 |
| 20260505012946 | 84 | 146 | 0.0 | 0.0 | 0.00 | 0.00 | 0.00 | 34 | 1006.0 |
| 20260505011947 | 84 | 146 | 0.0 | 0.0 | 0.00 | 0.00 | 0.00 | 37 | 1006.1 |
| 20260505010944 | 84 | 146 | 0.0 | 0.0 | 0.00 | 0.00 | 0.00 | 35 | 1006.2 |
| 20260505005940 | 85 | 146 | 0.0 | 0.0 | 0.00 | 0.00 | 0.00 | 32 | 1006.2 |
| 20260505004931 | 85 | 146 | 0.0 | 0.0 | 0.00 | 0.00 | 0.00 | 31 | 1006.3 |
| 20260505003936 | 84 | 146 | 0.0 | 0.0 | 0.00 | 0.00 | 0.00 | 31 | 1006.3 |
| 20260505002939 | 85 | 146 | 0.0 | 0.0 | 0.00 | 0.00 | 0.00 | 32 | 1006.4 |
| 20260505001925 | 86 | 146 | 0.0 | 0.0 | 0.00 | 0.00 | 0.00 | 30 | 1006.5 |
| 20260505000936 | 85 | 146 | 0.0 | 0.0 | 0.00 | 0.00 | 0.00 | 34 | 1006.5 |
| 20260504235941 | 84 | 146 | 0.0 | 0.0 | 0.00 | 0.00 | 0.00 | 37 | 1006.5 |
| 20260504234927 | 83 | 146 | 0.0 | 0.0 | 0.00 | 0.00 | 0.00 | 32 | 1006.5 |
| 20260504233931 | 84 | 146 | 0.0 | 3.5 | 0.00 | 0.00 | 0.00 | 35 | 1006.5 |
| 20260504232942 | 82 | 146 | 0.0 | 3.5 | 0.00 | 0.00 | 0.00 | 32 | 1006.5 |
| 20260504231928 | 82 | 146 | 0.0 | 3.5 | 0.00 | 0.00 | 0.00 | 33 | 1006.6 |
| 20260504230950 | 82 | 146 | 0.0 | 0.0 | 0.00 | 0.00 | 0.00 | 34 | 1006.7 |
| 20260504225932 | 82 | 146 | 0.0 | 3.5 | 0.00 | 0.00 | 0.00 | 33 | 1006.7 |
| 20260504224934 | 82 | 146 | 0.0 | 2.6 | 0.00 | 0.00 | 0.00 | 33 | 1006.9 |
| 20260504223939 | 82 | 146 | 0.0 | 6.1 | 0.00 | 0.00 | 0.00 | 36 | 1007.0 |
| 20260504222939 | 82 | 146 | 0.0 | 0.0 | 0.00 | 0.00 | 0.00 | 37 | 1007.0 |
| 20260504221940 | 82 | 146 | 0.0 | 2.6 | 0.00 | 0.00 | 0.00 | 35 | 1007.0 |
| 20260504220940 | 83 | 146 | 0.0 | 0.0 | 0.00 | 0.00 | 0.00 | 35 | 1007.1 |
| 20260504215944 | 82 | 146 | 0.0 | 0.0 | 0.00 | 0.00 | 0.00 | 39 | 1007.3 |
| 20260504214928 | 82 | 146 | 0.0 | 0.0 | 0.00 | 0.00 | 0.00 | 42 | 1007.5 |
| 20260504213954 | 81 | 146 | 0.0 | 0.0 | 0.00 | 0.00 | 0.00 | 39 | 1007.7 |
| 20260504212936 | 80 | 146 | 0.0 | 7.8 | 0.00 | 0.00 | 0.00 | 36 | 1007.7 |
| 20260504211946 | 80 | 146 | 0.0 | 4.3 | 0.00 | 0.00 | 0.00 | 42 | 1007.8 |
| 20260504210929 | 80 | 146 | 0.0 | 0.0 | 0.00 | 0.00 | 0.00 | 42 | 1007.9 |
| 20260504205932 | 80 | 146 | 0.9 | 6.1 | 0.00 | 0.00 | 0.00 | 45 | 1007.9 |
| 20260504204953 | 79 | 146 | 2.6 | 7.0 | 0.00 | 0.00 | 0.00 | 44 | 1007.9 |
| 20260504203934 | 79 | 146 | 0.0 | 7.0 | 0.00 | 0.00 | 0.00 | 43 | 1008.0 |
| 20260504202942 | 80 | 146 | 2.6 | 6.1 | 0.00 | 0.00 | 0.00 | 45 | 1008.0 |
| 20260504201925 | 79 | 146 | 1.7 | 6.1 | 0.00 | 0.00 | 0.00 | 42 | 1008.0 |
| 20260504200931 | 79 | 146 | 2.6 | 6.1 | 0.00 | 0.00 | 0.00 | 44 | 1008.1 |
| 20260504195954 | 79 | 146 | 3.5 | 6.1 | 0.00 | 0.00 | 0.00 | 42 | 1008.0 |
| 20260504194932 | 78 | 146 | 0.0 | 0.0 | 0.00 | 0.00 | 0.00 | 44 | 1008.1 |
| 20260504193955 | 77 | 146 | 0.9 | 5.2 | 0.00 | 0.00 | 0.00 | 44 | 1008.2 |
| 20260504192938 | 77 | 146 | 0.0 | 0.0 | 0.00 | 0.00 | 0.00 | 46 | 1008.2 |
| 20260504191938 | 76 | 146 | 0.0 | 0.0 | 0.00 | 0.00 | 0.00 | 47 | 1008.3 |
| 20260504190939 | 76 | 146 | 0.0 | 0.0 | 0.00 | 0.00 | 0.00 | 46 | 1008.3 |
| 20260504190003 | 75 | 146 | 0.0 | 7.0 | 0.00 | 0.00 | 0.00 | 47 | 1008.4 |
| 20260504184938 | 75 | 146 | 0.0 | 0.0 | 0.00 | 0.00 | 0.00 | 49 | 1008.5 |
| 20260504183940 | 75 | 146 | 0.0 | 0.0 | 0.00 | 0.00 | 0.00 | 49 | 1008.6 |
| 20260504182942 | 74 | 146 | 0.0 | 0.0 | 0.00 | 0.00 | 0.00 | 50 | 1008.7 |
| 20260504181949 | 74 | 146 | 0.0 | 2.6 | 0.00 | 0.00 | 0.00 | 46 | 1008.7 |
| 20260504180930 | 74 | 146 | 2.6 | 6.1 | 0.00 | 0.00 | 0.00 | 46 | 1008.8 |
| 20260504175935 | 73 | 146 | 0.0 | 7.0 | 0.00 | 0.00 | 0.00 | 48 | 1008.7 |
| 20260504174937 | 73 | 146 | 3.5 | 7.0 | 0.00 | 0.00 | 0.00 | 50 | 1008.7 |
| 20260504173927 | 73 | 146 | 1.7 | 7.0 | 0.00 | 0.00 | 0.00 | 49 | 1008.6 |
| 20260504172930 | 73 | 146 | 0.9 | 6.1 | 0.00 | 0.00 | 0.00 | 48 | 1008.5 |
| 20260504171953 | 73 | 146 | 0.9 | 7.8 | 0.00 | 0.00 | 0.00 | 46 | 1008.6 |
| 20260504170935 | 73 | 146 | 3.5 | 7.8 | 0.00 | 0.00 | 0.00 | 50 | 1008.6 |